| time (UTC) | temp F | wind direction | speed MPH | gust MPH | rain 1hr in | rain 24hr in | rain mn in | humidity % | barometer mb |
| 20260901063040 | 55 | 84 | 3.0 | 7.0 | 0.00 | 0.00 | 0.00 | 93 | 1021.4 |
| 20260901061548 | 54 | 53 | 3.0 | 5.0 | 0.00 | 0.00 | 0.00 | 94 | 1021.3 |
| 20260901060042 | 54 | 50 | 2.0 | 5.0 | 0.00 | 0.00 | 0.00 | 93 | 1021.2 |
| 20260901054536 | 53 | 59 | 3.0 | 5.0 | 0.00 | 0.00 | 0.00 | 93 | 1021.3 |
| 20260901053042 | 53 | 58 | 3.0 | 5.0 | 0.00 | 0.00 | 0.00 | 93 | 1021.2 |
| 20260901051539 | 53 | 48 | 3.0 | 5.0 | 0.00 | 0.00 | 0.00 | 93 | 1021.1 |
| 20260901050035 | 53 | 50 | 3.0 | 5.0 | 0.00 | 0.00 | 0.00 | 93 | 1021.2 |
| 20260901044535 | 53 | 50 | 2.0 | 5.0 | 0.00 | 0.00 | 0.00 | 93 | 1021.2 |
| 20260901043033 | 53 | 51 | 2.0 | 5.0 | 0.00 | 0.00 | 0.00 | 93 | 1021.1 |
| 20260901041531 | 53 | 47 | 3.0 | 7.0 | 0.00 | 0.00 | 0.00 | 93 | 1021.1 |
| 20260901040034 | 53 | 40 | 4.0 | 7.0 | 0.00 | 0.00 | 0.00 | 93 | 1020.9 |
| 20260901034533 | 53 | 29 | 4.0 | 7.0 | 0.00 | 0.00 | 0.00 | 93 | 1020.8 |
| 20260901033026 | 53 | 25 | 4.0 | 7.0 | 0.00 | 0.00 | 0.00 | 93 | 1020.6 |
| 20260901031542 | 53 | 33 | 3.0 | 6.0 | 0.00 | 0.00 | 0.00 | 92 | 1020.4 |
| 20260901030024 | 53 | 46 | 3.0 | 5.0 | 0.00 | 0.00 | 0.00 | 93 | 1020.4 |
| 20260901024525 | 54 | 37 | 3.0 | 6.0 | 0.00 | 0.00 | 0.00 | 92 | 1020.3 |
| 20260901023018 | 54 | 48 | 3.0 | 5.0 | 0.00 | 0.00 | 0.00 | 92 | 1020.4 |
| 20260901021516 | 54 | 56 | 4.0 | 6.0 | 0.00 | 0.00 | 0.00 | 92 | 1020.4 |
| 20260901020015 | 54 | 40 | 2.0 | 4.0 | 0.00 | 0.00 | 0.00 | 92 | 1020.4 |
| 20260901014514 | 54 | 42 | 3.0 | 5.0 | 0.00 | 0.00 | 0.00 | 92 | 1020.4 |
| 20260901013013 | 54 | 48 | 3.0 | 5.0 | 0.00 | 0.00 | 0.00 | 92 | 1020.2 |
| 20260901011512 | 54 | 42 | 3.0 | 5.0 | 0.00 | 0.00 | 0.00 | 92 | 1020.3 |
| 20260901010022 | 54 | 42 | 1.0 | 3.0 | 0.00 | 0.00 | 0.00 | 92 | 1020.2 |
| 20260901004509 | 54 | 42 | 2.0 | 4.0 | 0.00 | 0.00 | 0.00 | 91 | 1020.2 |
| 20260901003008 | 54 | 43 | 3.0 | 5.0 | 0.00 | 0.00 | 0.00 | 91 | 1020.1 |
| 20260901001514 | 54 | 54 | 3.0 | 5.0 | 0.00 | 0.00 | 0.00 | 91 | 1020.3 |
| 20260901000012 | 54 | 67 | 3.0 | 4.0 | 0.00 | 0.01 | 0.00 | 90 | 1020.1 |
| 20260831234503 | 55 | 72 | 2.0 | 5.0 | 0.00 | 0.01 | 0.00 | 90 | 1019.9 |
| 20260831233101 | 55 | 81 | 2.0 | 6.0 | 0.00 | 0.01 | 0.00 | 90 | 1019.9 |
| 20260831231603 | 56 | 84 | 3.0 | 5.0 | 0.00 | 0.01 | 0.00 | 90 | 1019.8 |
| 20260831230137 | 56 | 82 | 4.0 | 5.0 | 0.00 | 0.02 | 0.00 | 89 | 1020.0 |
| 20260831224555 | 57 | 80 | 2.0 | 4.0 | 0.00 | 0.02 | 0.00 | 89 | 1019.9 |
| 20260831223054 | 57 | 94 | 4.0 | 7.0 | 0.00 | 0.02 | 0.00 | 89 | 1020.0 |
| 20260831221613 | 57 | 113 | 5.0 | 8.0 | 0.00 | 0.02 | 0.00 | 89 | 1019.9 |
| 20260831220048 | 58 | 98 | 4.0 | 9.0 | 0.00 | 0.06 | 0.02 | 88 | 1020.0 |
| 20260831214549 | 58 | 98 | 6.0 | 9.0 | 0.00 | 0.06 | 0.02 | 88 | 1019.8 |
| 20260831213053 | 58 | 100 | 6.0 | 11.0 | 0.00 | 0.06 | 0.02 | 88 | 1019.7 |
| 20260831211559 | 58 | 97 | 5.0 | 10.0 | 0.00 | 0.06 | 0.02 | 88 | 1019.6 |
| 20260831210043 | 58 | 85 | 4.0 | 8.0 | 0.00 | 0.06 | 0.02 | 88 | 1019.5 |
| 20260831204542 | 58 | 81 | 4.0 | 9.0 | 0.00 | 0.06 | 0.02 | 87 | 1019.4 |
| 20260831203043 | 58 | 81 | 3.0 | 8.0 | 0.00 | 0.06 | 0.02 | 86 | 1019.3 |
| 20260831201540 | 59 | 81 | 4.0 | 9.0 | 0.00 | 0.06 | 0.02 | 86 | 1019.1 |
| 20260831200038 | 59 | 74 | 5.0 | 10.0 | 0.00 | 0.06 | 0.02 | 85 | 1019.0 |
| 20260831194612 | 59 | 95 | 8.0 | 12.0 | 0.00 | 0.06 | 0.02 | 84 | 1018.9 |
| 20260831193036 | 60 | 78 | 7.0 | 11.0 | 0.00 | 0.06 | 0.02 | 84 | 1018.8 |
| 20260831191537 | 60 | 83 | 6.0 | 11.0 | 0.00 | 0.06 | 0.02 | 83 | 1018.7 |
| 20260831190034 | 61 | 85 | 8.0 | 12.0 | 0.00 | 0.06 | 0.02 | 82 | 1018.5 |
| 20260831184542 | 61 | 88 | 6.0 | 11.0 | 0.00 | 0.06 | 0.02 | 80 | 1018.3 |
| 20260831183029 | 62 | 83 | 9.0 | 15.0 | 0.00 | 0.06 | 0.02 | 78 | 1017.8 |
| 20260831181531 | 63 | 98 | 9.0 | 20.0 | 0.00 | 0.06 | 0.02 | 76 | 1017.7 |
| 20260831180027 | 64 | 74 | 11.0 | 21.0 | 0.00 | 0.06 | 0.02 | 73 | 1017.5 |
| 20260831174543 | 64 | 83 | 16.0 | 32.0 | 0.00 | 0.06 | 0.02 | 71 | 1017.4 |
| 20260831173025 | 65 | 100 | 14.0 | 21.0 | 0.00 | 0.06 | 0.02 | 71 | 1017.1 |
| 20260831171538 | 66 | 94 | 13.0 | 21.0 | 0.00 | 0.06 | 0.02 | 70 | 1017.0 |
| 20260831170054 | 65 | 99 | 12.0 | 24.0 | 0.00 | 0.06 | 0.02 | 70 | 1016.8 |
| 20260831164530 | 65 | 99 | 14.0 | 26.0 | 0.00 | 0.06 | 0.02 | 71 | 1016.7 |
| 20260831163023 | 66 | 107 | 12.0 | 21.0 | 0.00 | 0.06 | 0.02 | 74 | 1016.6 |
| 20260831161519 | 66 | 114 | 9.0 | 14.0 | 0.00 | 0.06 | 0.02 | 75 | 1016.4 |
| 20260831160028 | 66 | 118 | 9.0 | 15.0 | 0.00 | 0.06 | 0.02 | 75 | 1016.3 |
| 20260831154517 | 65 | 94 | 9.0 | 15.0 | 0.00 | 0.06 | 0.02 | 76 | 1016.2 |
| 20260831153016 | 65 | 146 | 9.0 | 17.0 | 0.00 | 0.06 | 0.02 | 77 | 1016.1 |
| 20260831151522 | 66 | 147 | 12.0 | 21.0 | 0.00 | 0.06 | 0.02 | 71 | 1016.0 |
| 20260831150014 | 68 | 96 | 11.0 | 26.0 | 0.00 | 0.06 | 0.02 | 66 | 1015.8 |
| 20260831144523 | 68 | 110 | 16.0 | 32.0 | 0.00 | 0.06 | 0.02 | 64 | 1015.6 |
| 20260831143011 | 69 | 52 | 17.0 | 29.0 | 0.00 | 0.06 | 0.02 | 63 | 1015.5 |
| 20260831141513 | 68 | 90 | 12.0 | 23.0 | 0.00 | 0.06 | 0.02 | 67 | 1015.2 |
| 20260831140010 | 70 | 100 | 21.0 | 33.0 | 0.00 | 0.06 | 0.02 | 64 | 1015.2 |
| 20260831134506 | 69 | 117 | 15.0 | 32.0 | 0.00 | 0.06 | 0.02 | 66 | 1015.1 |
| 20260831133003 | 69 | 85 | 20.0 | 29.0 | 0.00 | 0.06 | 0.02 | 70 | 1014.8 |
| 20260831131602 | 68 | 73 | 18.0 | 30.0 | 0.00 | 0.06 | 0.02 | 74 | 1014.8 |
| 20260831130056 | 66 | 90 | 19.0 | 29.0 | 0.00 | 0.06 | 0.02 | 76 | 1014.5 |
| 20260831124556 | 64 | 69 | 15.0 | 25.0 | 0.00 | 0.06 | 0.02 | 85 | 1014.8 |
| 20260831123055 | 62 | 102 | 11.0 | 20.0 | 0.00 | 0.06 | 0.02 | 88 | 1015.1 |
| 20260831121554 | 64 | 115 | 15.0 | 28.0 | 0.00 | 0.06 | 0.02 | 80 | 1015.0 |
| 20260831120052 | 65 | 52 | 16.0 | 25.0 | 0.00 | 0.06 | 0.02 | 78 | 1014.7 |
| 20260831114552 | 66 | 56 | 19.0 | 25.0 | 0.00 | 0.06 | 0.02 | 76 | 1014.7 |
| 20260831113057 | 64 | 35 | 15.0 | 32.0 | 0.00 | 0.06 | 0.02 | 81 | 1014.8 |
| 20260831111547 | 63 | 81 | 16.0 | 24.0 | 0.00 | 0.06 | 0.02 | 82 | 1014.9 |
| 20260831110047 | 63 | 43 | 12.0 | 23.0 | 0.00 | 0.06 | 0.02 | 84 | 1014.9 |
| 20260831104546 | 63 | 57 | 16.0 | 22.0 | 0.00 | 0.06 | 0.02 | 83 | 1014.8 |
| 20260831103057 | 64 | 67 | 13.0 | 25.0 | 0.00 | 0.06 | 0.02 | 82 | 1014.5 |
| 20260831101546 | 64 | 81 | 15.0 | 30.0 | 0.00 | 0.06 | 0.02 | 82 | 1014.6 |
| 20260831100041 | 64 | 54 | 16.0 | 26.0 | 0.00 | 0.06 | 0.02 | 84 | 1014.6 |
| 20260831094538 | 62 | 90 | 18.0 | 30.0 | 0.00 | 0.06 | 0.02 | 85 | 1014.7 |
| 20260831093036 | 62 | 77 | 11.0 | 23.0 | 0.00 | 0.06 | 0.02 | 88 | 1014.7 |
| 20260831091536 | 62 | 46 | 14.0 | 24.0 | 0.00 | 0.06 | 0.02 | 86 | 1014.7 |
| 20260831090033 | 62 | 94 | 13.0 | 25.0 | 0.00 | 0.06 | 0.02 | 86 | 1014.7 |
| 20260831084532 | 61 | 51 | 12.0 | 23.0 | 0.00 | 0.06 | 0.02 | 87 | 1014.6 |
| 20260831083030 | 60 | 83 | 14.0 | 20.0 | 0.00 | 0.06 | 0.02 | 86 | 1014.7 |
| 20260831081529 | 60 | 94 | 15.0 | 25.0 | 0.00 | 0.06 | 0.02 | 87 | 1014.6 |
| 20260831080046 | 59 | 75 | 10.0 | 21.0 | 0.00 | 0.06 | 0.02 | 89 | 1014.4 |
| 20260831074526 | 59 | 79 | 15.0 | 26.0 | 0.00 | 0.06 | 0.02 | 91 | 1014.5 |
| 20260831073031 | 59 | 105 | 12.0 | 23.0 | 0.00 | 0.06 | 0.02 | 92 | 1014.4 |
| 20260831071525 | 58 | 60 | 14.0 | 23.0 | 0.00 | 0.06 | 0.02 | 93 | 1014.4 |
| 20260831070026 | 58 | 62 | 13.0 | 18.0 | 0.00 | 0.06 | 0.02 | 93 | 1014.3 |
| 20260831064522 | 58 | 79 | 8.0 | 20.0 | 0.00 | 0.06 | 0.02 | 93 | 1014.0 |